owner,sensor,date,latitude,longitude,air_temperature,qcFlag 
WAVCIS,ioos:station:WAVCIS:CSI16:1,2011-10-01T00:00:00Z,29.4012,-89.0355,26.45,11111222 
WAVCIS,ioos:station:WAVCIS:CSI16:1,2011-10-01T01:00:00Z,29.4012,-89.0355,26.37,11111222 
WAVCIS,ioos:station:WAVCIS:CSI16:1,2011-10-01T02:00:00Z,29.4012,-89.0355,25.71,11111222 
WAVCIS,ioos:station:WAVCIS:CSI16:1,2011-10-01T03:00:00Z,29.4012,-89.0355,25.21,11111222 
WAVCIS,ioos:station:WAVCIS:CSI16:1,2011-10-01T04:00:00Z,29.4012,-89.0355,26.11,11111222 
WAVCIS,ioos:station:WAVCIS:CSI16:1,2011-10-01T05:00:00Z,29.4012,-89.0355,27.58,11111222 
WAVCIS,ioos:station:WAVCIS:CSI16:1,2011-10-01T06:00:00Z,29.4012,-89.0355,27.29,11111222 
WAVCIS,ioos:station:WAVCIS:CSI16:1,2011-10-01T07:00:00Z,29.4012,-89.0355,27.75,11111222 
WAVCIS,ioos:station:WAVCIS:CSI16:1,2011-10-01T08:00:00Z,29.4012,-89.0355,29.41,11111222 
WAVCIS,ioos:station:WAVCIS:CSI16:1,2011-10-01T09:00:00Z,29.4012,-89.0355,30.76,11111222 
WAVCIS,ioos:station:WAVCIS:CSI16:1,2011-10-01T10:00:00Z,29.4012,-89.0355,29.43,11111222 
WAVCIS,ioos:station:WAVCIS:CSI16:1,2011-10-01T11:00:00Z,29.4012,-89.0355,28.2,11111222 
WAVCIS,ioos:station:WAVCIS:CSI16:1,2011-10-01T12:00:00Z,29.4012,-89.0355,28.72,11111222 
WAVCIS,ioos:station:WAVCIS:CSI16:1,2011-10-01T13:00:00Z,29.4012,-89.0355,28.42,11111222 
WAVCIS,ioos:station:WAVCIS:CSI16:1,2011-10-01T14:00:00Z,29.4012,-89.0355,28.43,11111222 
WAVCIS,ioos:station:WAVCIS:CSI16:1,2011-10-01T15:00:00Z,29.4012,-89.0355,26.27,11111222 
WAVCIS,ioos:station:WAVCIS:CSI16:1,2011-10-01T16:00:00Z,29.4012,-89.0355,26.3,11111222 
WAVCIS,ioos:station:WAVCIS:CSI16:1,2011-10-01T17:00:00Z,29.4012,-89.0355,25.43,11111222 
WAVCIS,ioos:station:WAVCIS:CSI16:1,2011-10-01T18:00:00Z,29.4012,-89.0355,25.77,11111222 
WAVCIS,ioos:station:WAVCIS:CSI16:1,2011-10-01T19:00:00Z,29.4012,-89.0355,28.77,11111222 
WAVCIS,ioos:station:WAVCIS:CSI16:1,2011-10-01T20:00:00Z,29.4012,-89.0355,26.68,11111222 
WAVCIS,ioos:station:WAVCIS:CSI16:1,2011-10-01T21:00:00Z,29.4012,-89.0355,29.23,11111222 
WAVCIS,ioos:station:WAVCIS:CSI16:1,2011-10-01T22:00:00Z,29.4012,-89.0355,23.36,11111222 
WAVCIS,ioos:station:WAVCIS:CSI16:1,2011-10-01T23:00:00Z,29.4012,-89.0355,24.06,11111222 
WAVCIS,ioos:station:WAVCIS:CSI16:1,2011-10-02T00:00:00Z,29.4012,-89.0355,22.74,11111222 
WAVCIS,ioos:station:WAVCIS:CSI16:1,2011-10-02T01:00:00Z,29.4012,-89.0355,23.15,11111222 
WAVCIS,ioos:station:WAVCIS:CSI16:1,2011-10-02T02:00:00Z,29.4012,-89.0355,24.01,11111222 
WAVCIS,ioos:station:WAVCIS:CSI16:1,2011-10-02T03:00:00Z,29.4012,-89.0355,27.33,11111222 
WAVCIS,ioos:station:WAVCIS:CSI16:1,2011-10-02T04:00:00Z,29.4012,-89.0355,29.66,11111222 
WAVCIS,ioos:station:WAVCIS:CSI16:1,2011-10-02T05:00:00Z,29.4012,-89.0355,31.7,11111222 
WAVCIS,ioos:station:WAVCIS:CSI16:1,2011-10-02T06:00:00Z,29.4012,-89.0355,29.36,11111222 
WAVCIS,ioos:station:WAVCIS:CSI16:1,2011-10-02T07:00:00Z,29.4012,-89.0355,29.18,11111222 
WAVCIS,ioos:station:WAVCIS:CSI16:1,2011-10-02T08:00:00Z,29.4012,-89.0355,28.87,11111222 
WAVCIS,ioos:station:WAVCIS:CSI16:1,2011-10-02T09:00:00Z,29.4012,-89.0355,27.81,11111222 
WAVCIS,ioos:station:WAVCIS:CSI16:1,2011-10-02T10:00:00Z,29.4012,-89.0355,25.57,11111222 
WAVCIS,ioos:station:WAVCIS:CSI16:1,2011-10-02T11:00:00Z,29.4012,-89.0355,27.17,11111222 
WAVCIS,ioos:station:WAVCIS:CSI16:1,2011-10-02T12:00:00Z,29.4012,-89.0355,25.67,11111222 
WAVCIS,ioos:station:WAVCIS:CSI16:1,2011-10-02T13:00:00Z,29.4012,-89.0355,25.62,11111222 
WAVCIS,ioos:station:WAVCIS:CSI16:1,2011-10-02T14:00:00Z,29.4012,-89.0355,26.33,11111222 
WAVCIS,ioos:station:WAVCIS:CSI16:1,2011-10-02T15:00:00Z,29.4012,-89.0355,25.34,11111222 
WAVCIS,ioos:station:WAVCIS:CSI16:1,2011-10-02T16:00:00Z,29.4012,-89.0355,23.99,11111222 
WAVCIS,ioos:station:WAVCIS:CSI16:1,2011-10-02T17:00:00Z,29.4012,-89.0355,22.62,11111222 
WAVCIS,ioos:station:WAVCIS:CSI16:1,2011-10-02T18:00:00Z,29.4012,-89.0355,23.58,11111222 
WAVCIS,ioos:station:WAVCIS:CSI16:1,2011-10-02T19:00:00Z,29.4012,-89.0355,24.06,11111222 
WAVCIS,ioos:station:WAVCIS:CSI16:1,2011-10-02T20:00:00Z,29.4012,-89.0355,23.42,11111222 
WAVCIS,ioos:station:WAVCIS:CSI16:1,2011-10-02T21:00:00Z,29.4012,-89.0355,22.58,11111222 
WAVCIS,ioos:station:WAVCIS:CSI16:1,2011-10-02T22:00:00Z,29.4012,-89.0355,21.44,11111222 
WAVCIS,ioos:station:WAVCIS:CSI16:1,2011-10-02T23:00:00Z,29.4012,-89.0355,21.57,11111222 
WAVCIS,ioos:station:WAVCIS:CSI16:1,2011-10-03T00:00:00Z,29.4012,-89.0355,20.77,11111222 
WAVCIS,ioos:station:WAVCIS:CSI16:1,2011-10-03T01:00:00Z,29.4012,-89.0355,20.47,11111222 
WAVCIS,ioos:station:WAVCIS:CSI16:1,2011-10-03T02:00:00Z,29.4012,-89.0355,19.55,11111222 
WAVCIS,ioos:station:WAVCIS:CSI16:1,2011-10-03T03:00:00Z,29.4012,-89.0355,19.59,11111222 
WAVCIS,ioos:station:WAVCIS:CSI16:1,2011-10-03T04:00:00Z,29.4012,-89.0355,20.24,11111222 
WAVCIS,ioos:station:WAVCIS:CSI16:1,2011-10-03T05:00:00Z,29.4012,-89.0355,25.25,11111222 
WAVCIS,ioos:station:WAVCIS:CSI16:1,2011-10-03T06:00:00Z,29.4012,-89.0355,28.72,11111222 
WAVCIS,ioos:station:WAVCIS:CSI16:1,2011-10-03T07:00:00Z,29.4012,-89.0355,26.88,11111222 
WAVCIS,ioos:station:WAVCIS:CSI16:1,2011-10-03T08:00:00Z,29.4012,-89.0355,25.83,11111222 
WAVCIS,ioos:station:WAVCIS:CSI16:1,2011-10-03T09:00:00Z,29.4012,-89.0355,25.66,11111222 
WAVCIS,ioos:station:WAVCIS:CSI16:1,2011-10-03T10:00:00Z,29.4012,-89.0355,25.47,11111222 
WAVCIS,ioos:station:WAVCIS:CSI16:1,2011-10-03T11:00:00Z,29.4012,-89.0355,25.32,11111222 
WAVCIS,ioos:station:WAVCIS:CSI16:1,2011-10-03T12:00:00Z,29.4012,-89.0355,22.94,11111222 
WAVCIS,ioos:station:WAVCIS:CSI16:1,2011-10-03T13:00:00Z,29.4012,-89.0355,23.27,11111222 
WAVCIS,ioos:station:WAVCIS:CSI16:1,2011-10-03T14:00:00Z,29.4012,-89.0355,22.95,11111222 
WAVCIS,ioos:station:WAVCIS:CSI16:1,2011-10-03T15:00:00Z,29.4012,-89.0355,23.72,11111222 
WAVCIS,ioos:station:WAVCIS:CSI16:1,2011-10-03T16:00:00Z,29.4012,-89.0355,23.28,11111222 
WAVCIS,ioos:station:WAVCIS:CSI16:1,2011-10-03T17:00:00Z,29.4012,-89.0355,23.43,11111222 
WAVCIS,ioos:station:WAVCIS:CSI16:1,2011-10-03T18:00:00Z,29.4012,-89.0355,23.83,11111222 
WAVCIS,ioos:station:WAVCIS:CSI16:1,2011-10-03T19:00:00Z,29.4012,-89.0355,24.11,11111222 
WAVCIS,ioos:station:WAVCIS:CSI16:1,2011-10-03T20:00:00Z,29.4012,-89.0355,24.15,11111222 
WAVCIS,ioos:station:WAVCIS:CSI16:1,2011-10-03T21:00:00Z,29.4012,-89.0355,25.45,11111222 
WAVCIS,ioos:station:WAVCIS:CSI16:1,2011-10-03T22:00:00Z,29.4012,-89.0355,26.28,11111222 
WAVCIS,ioos:station:WAVCIS:CSI16:1,2011-10-03T23:00:00Z,29.4012,-89.0355,25.5,11111222 
WAVCIS,ioos:station:WAVCIS:CSI16:1,2011-10-04T00:00:00Z,29.4012,-89.0355,26.85,11111222 
WAVCIS,ioos:station:WAVCIS:CSI16:1,2011-10-04T01:00:00Z,29.4012,-89.0355,24.87,11111222 
WAVCIS,ioos:station:WAVCIS:CSI16:1,2011-10-04T02:00:00Z,29.4012,-89.0355,27.89,11111222 
WAVCIS,ioos:station:WAVCIS:CSI16:1,2011-10-04T03:00:00Z,29.4012,-89.0355,29.69,11111222 
WAVCIS,ioos:station:WAVCIS:CSI16:1,2011-10-04T04:00:00Z,29.4012,-89.0355,29.53,11111222 
WAVCIS,ioos:station:WAVCIS:CSI16:1,2011-10-04T05:00:00Z,29.4012,-89.0355,28.97,11111222 
WAVCIS,ioos:station:WAVCIS:CSI16:1,2011-10-04T06:00:00Z,29.4012,-89.0355,29.09,11111222 
WAVCIS,ioos:station:WAVCIS:CSI16:1,2011-10-04T07:00:00Z,29.4012,-89.0355,28.44,11111222 
WAVCIS,ioos:station:WAVCIS:CSI16:1,2011-10-04T08:00:00Z,29.4012,-89.0355,25.12,11111222 
WAVCIS,ioos:station:WAVCIS:CSI16:1,2011-10-04T09:00:00Z,29.4012,-89.0355,24.56,11111222 
WAVCIS,ioos:station:WAVCIS:CSI16:1,2011-10-04T10:00:00Z,29.4012,-89.0355,24.76,11111222 
WAVCIS,ioos:station:WAVCIS:CSI16:1,2011-10-04T11:00:00Z,29.4012,-89.0355,24.93,11111222 
WAVCIS,ioos:station:WAVCIS:CSI16:1,2011-10-04T12:00:00Z,29.4012,-89.0355,25.26,11111222 
WAVCIS,ioos:station:WAVCIS:CSI16:1,2011-10-04T13:00:00Z,29.4012,-89.0355,24.61,11111222 
WAVCIS,ioos:station:WAVCIS:CSI16:1,2011-10-04T14:00:00Z,29.4012,-89.0355,25.97,11111222 
WAVCIS,ioos:station:WAVCIS:CSI16:1,2011-10-04T15:00:00Z,29.4012,-89.0355,25.61,11111222 
WAVCIS,ioos:station:WAVCIS:CSI16:1,2011-10-04T16:00:00Z,29.4012,-89.0355,25.21,11111222 
WAVCIS,ioos:station:WAVCIS:CSI16:1,2011-10-04T17:00:00Z,29.4012,-89.0355,24.94,11111222 
WAVCIS,ioos:station:WAVCIS:CSI16:1,2011-10-04T18:00:00Z,29.4012,-89.0355,25.75,11111222 
WAVCIS,ioos:station:WAVCIS:CSI16:1,2011-10-04T19:00:00Z,29.4012,-89.0355,25.99,11111222 
WAVCIS,ioos:station:WAVCIS:CSI16:1,2011-10-04T20:00:00Z,29.4012,-89.0355,26.82,11111222 
WAVCIS,ioos:station:WAVCIS:CSI16:1,2011-10-04T21:00:00Z,29.4012,-89.0355,27.61,11111222 
WAVCIS,ioos:station:WAVCIS:CSI16:1,2011-10-04T22:00:00Z,29.4012,-89.0355,28.63,11111222 
WAVCIS,ioos:station:WAVCIS:CSI16:1,2011-10-04T23:00:00Z,29.4012,-89.0355,27.72,11111222 
WAVCIS,ioos:station:WAVCIS:CSI16:1,2011-10-05T00:00:00Z,29.4012,-89.0355,25.87,11111222 
WAVCIS,ioos:station:WAVCIS:CSI16:1,2011-10-05T01:00:00Z,29.4012,-89.0355,25.61,11111222 
WAVCIS,ioos:station:WAVCIS:CSI16:1,2011-10-05T02:00:00Z,29.4012,-89.0355,25.48,11111222 
WAVCIS,ioos:station:WAVCIS:CSI16:1,2011-10-05T03:00:00Z,29.4012,-89.0355,25.5,11111222 
WAVCIS,ioos:station:WAVCIS:CSI16:1,2011-10-05T04:00:00Z,29.4012,-89.0355,25.81,11111222 
WAVCIS,ioos:station:WAVCIS:CSI16:1,2011-10-05T05:00:00Z,29.4012,-89.0355,26.16,11111222 
WAVCIS,ioos:station:WAVCIS:CSI16:1,2011-10-05T06:00:00Z,29.4012,-89.0355,26.02,11111222 
WAVCIS,ioos:station:WAVCIS:CSI16:1,2011-10-05T07:00:00Z,29.4012,-89.0355,27.38,11111222 
WAVCIS,ioos:station:WAVCIS:CSI16:1,2011-10-05T08:00:00Z,29.4012,-89.0355,28.07,11111222 
WAVCIS,ioos:station:WAVCIS:CSI16:1,2011-10-05T09:00:00Z,29.4012,-89.0355,26.83,11111222 
WAVCIS,ioos:station:WAVCIS:CSI16:1,2011-10-05T10:00:00Z,29.4012,-89.0355,26.14,11111222 
WAVCIS,ioos:station:WAVCIS:CSI16:1,2011-10-05T11:00:00Z,29.4012,-89.0355,26.18,11111222 
WAVCIS,ioos:station:WAVCIS:CSI16:1,2011-10-05T12:00:00Z,29.4012,-89.0355,25.9,11111222 
WAVCIS,ioos:station:WAVCIS:CSI16:1,2011-10-05T13:00:00Z,29.4012,-89.0355,26.66,11111222 
WAVCIS,ioos:station:WAVCIS:CSI16:1,2011-10-05T14:00:00Z,29.4012,-89.0355,26.68,11111222 
WAVCIS,ioos:station:WAVCIS:CSI16:1,2011-10-05T15:00:00Z,29.4012,-89.0355,26.38,11111222 
WAVCIS,ioos:station:WAVCIS:CSI16:1,2011-10-05T16:00:00Z,29.4012,-89.0355,25.86,11111222 
WAVCIS,ioos:station:WAVCIS:CSI16:1,2011-10-05T17:00:00Z,29.4012,-89.0355,25.95,11111222 
WAVCIS,ioos:station:WAVCIS:CSI16:1,2011-10-05T18:00:00Z,29.4012,-89.0355,25.66,11111222 
WAVCIS,ioos:station:WAVCIS:CSI16:1,2011-10-05T19:00:00Z,29.4012,-89.0355,25.56,11111222 
WAVCIS,ioos:station:WAVCIS:CSI16:1,2011-10-05T20:00:00Z,29.4012,-89.0355,25.43,11111222 
WAVCIS,ioos:station:WAVCIS:CSI16:1,2011-10-05T21:00:00Z,29.4012,-89.0355,25.64,11111222 
WAVCIS,ioos:station:WAVCIS:CSI16:1,2011-10-05T22:00:00Z,29.4012,-89.0355,25.85,11111222 
WAVCIS,ioos:station:WAVCIS:CSI16:1,2011-10-05T23:00:00Z,29.4012,-89.0355,25.89,11111222 
WAVCIS,ioos:station:WAVCIS:CSI16:1,2011-10-06T00:00:00Z,29.4012,-89.0355,25.29,11111222 
WAVCIS,ioos:station:WAVCIS:CSI16:1,2011-10-06T01:00:00Z,29.4012,-89.0355,25.25,11111222 
WAVCIS,ioos:station:WAVCIS:CSI16:1,2011-10-06T02:00:00Z,29.4012,-89.0355,25.14,11111222 
WAVCIS,ioos:station:WAVCIS:CSI16:1,2011-10-06T03:00:00Z,29.4012,-89.0355,24.89,11111222 
WAVCIS,ioos:station:WAVCIS:CSI16:1,2011-10-06T04:00:00Z,29.4012,-89.0355,24.91,11111222 
WAVCIS,ioos:station:WAVCIS:CSI16:1,2011-10-06T05:00:00Z,29.4012,-89.0355,24.86,11111222 
WAVCIS,ioos:station:WAVCIS:CSI16:1,2011-10-06T06:00:00Z,29.4012,-89.0355,25.06,11111222 
WAVCIS,ioos:station:WAVCIS:CSI16:1,2011-10-06T07:00:00Z,29.4012,-89.0355,24.84,11111222 
WAVCIS,ioos:station:WAVCIS:CSI16:1,2011-10-06T08:00:00Z,29.4012,-89.0355,24.77,11111222 
WAVCIS,ioos:station:WAVCIS:CSI16:1,2011-10-06T09:00:00Z,29.4012,-89.0355,24.79,11111222 
WAVCIS,ioos:station:WAVCIS:CSI16:1,2011-10-06T10:00:00Z,29.4012,-89.0355,24.86,11111222 
WAVCIS,ioos:station:WAVCIS:CSI16:1,2011-10-06T11:00:00Z,29.4012,-89.0355,25.12,11111222 
WAVCIS,ioos:station:WAVCIS:CSI16:1,2011-10-06T12:00:00Z,29.4012,-89.0355,24.85,11111222 
WAVCIS,ioos:station:WAVCIS:CSI16:1,2011-10-06T13:00:00Z,29.4012,-89.0355,24.99,11111222 
WAVCIS,ioos:station:WAVCIS:CSI16:1,2011-10-06T14:00:00Z,29.4012,-89.0355,22.34,11111222 
WAVCIS,ioos:station:WAVCIS:CSI16:1,2011-10-06T15:00:00Z,29.4012,-89.0355,22.51,11111222 
WAVCIS,ioos:station:WAVCIS:CSI16:1,2011-10-06T16:00:00Z,29.4012,-89.0355,21.75,11111222 
WAVCIS,ioos:station:WAVCIS:CSI16:1,2011-10-06T17:00:00Z,29.4012,-89.0355,24.14,11111222 
WAVCIS,ioos:station:WAVCIS:CSI16:1,2011-10-06T18:00:00Z,29.4012,-89.0355,25.04,11111222 
WAVCIS,ioos:station:WAVCIS:CSI16:1,2011-10-06T19:00:00Z,29.4012,-89.0355,25.22,11111222 
WAVCIS,ioos:station:WAVCIS:CSI16:1,2011-10-06T20:00:00Z,29.4012,-89.0355,25.22,11111222 
WAVCIS,ioos:station:WAVCIS:CSI16:1,2011-10-06T21:00:00Z,29.4012,-89.0355,25.1,11111222 
WAVCIS,ioos:station:WAVCIS:CSI16:1,2011-10-06T22:00:00Z,29.4012,-89.0355,24.59,11111222 
WAVCIS,ioos:station:WAVCIS:CSI16:1,2011-10-06T23:00:00Z,29.4012,-89.0355,24.53,11111222 
WAVCIS,ioos:station:WAVCIS:CSI16:1,2011-10-07T00:00:00Z,29.4012,-89.0355,24.31,11111222 
WAVCIS,ioos:station:WAVCIS:CSI16:1,2011-10-07T01:00:00Z,29.4012,-89.0355,24.66,11111222 
WAVCIS,ioos:station:WAVCIS:CSI16:1,2011-10-07T02:00:00Z,29.4012,-89.0355,24.83,11111222 
WAVCIS,ioos:station:WAVCIS:CSI16:1,2011-10-07T03:00:00Z,29.4012,-89.0355,25.14,11111222 
WAVCIS,ioos:station:WAVCIS:CSI16:1,2011-10-07T04:00:00Z,29.4012,-89.0355,24.68,11111222 
WAVCIS,ioos:station:WAVCIS:CSI16:1,2011-10-07T05:00:00Z,29.4012,-89.0355,23.15,11111222 
WAVCIS,ioos:station:WAVCIS:CSI16:1,2011-10-07T06:00:00Z,29.4012,-89.0355,25.31,11111222 
WAVCIS,ioos:station:WAVCIS:CSI16:1,2011-10-07T07:00:00Z,29.4012,-89.0355,25.55,11111222 
WAVCIS,ioos:station:WAVCIS:CSI16:1,2011-10-07T08:00:00Z,29.4012,-89.0355,25.61,11111222 
WAVCIS,ioos:station:WAVCIS:CSI16:1,2011-10-07T09:00:00Z,29.4012,-89.0355,25.7,11111222 
WAVCIS,ioos:station:WAVCIS:CSI16:1,2011-10-07T10:00:00Z,29.4012,-89.0355,25.28,11111222 
WAVCIS,ioos:station:WAVCIS:CSI16:1,2011-10-07T11:00:00Z,29.4012,-89.0355,25.4,11111222 
WAVCIS,ioos:station:WAVCIS:CSI16:1,2011-10-07T12:00:00Z,29.4012,-89.0355,25.18,11111222 
WAVCIS,ioos:station:WAVCIS:CSI16:1,2011-10-07T13:00:00Z,29.4012,-89.0355,25.2,11111222 
WAVCIS,ioos:station:WAVCIS:CSI16:1,2011-10-07T14:00:00Z,29.4012,-89.0355,25.48,11111222 
WAVCIS,ioos:station:WAVCIS:CSI16:1,2011-10-07T15:00:00Z,29.4012,-89.0355,25.42,11111222 
WAVCIS,ioos:station:WAVCIS:CSI16:1,2011-10-07T16:00:00Z,29.4012,-89.0355,25.21,11111222 
WAVCIS,ioos:station:WAVCIS:CSI16:1,2011-10-07T17:00:00Z,29.4012,-89.0355,24.56,11111222 
WAVCIS,ioos:station:WAVCIS:CSI16:1,2011-10-07T18:00:00Z,29.4012,-89.0355,25.29,11111222 
WAVCIS,ioos:station:WAVCIS:CSI16:1,2011-10-07T19:00:00Z,29.4012,-89.0355,25.18,11111222 
WAVCIS,ioos:station:WAVCIS:CSI16:1,2011-10-07T20:00:00Z,29.4012,-89.0355,25.22,11111222 
WAVCIS,ioos:station:WAVCIS:CSI16:1,2011-10-07T21:00:00Z,29.4012,-89.0355,25.24,11111222 
WAVCIS,ioos:station:WAVCIS:CSI16:1,2011-10-07T22:00:00Z,29.4012,-89.0355,25.22,11111222 
WAVCIS,ioos:station:WAVCIS:CSI16:1,2011-10-07T23:00:00Z,29.4012,-89.0355,25.0,11111222 
WAVCIS,ioos:station:WAVCIS:CSI16:1,2011-10-08T00:00:00Z,29.4012,-89.0355,24.92,11111222 
WAVCIS,ioos:station:WAVCIS:CSI16:1,2011-10-08T01:00:00Z,29.4012,-89.0355,25.05,11111222 
WAVCIS,ioos:station:WAVCIS:CSI16:1,2011-10-08T02:00:00Z,29.4012,-89.0355,25.25,11111222 
WAVCIS,ioos:station:WAVCIS:CSI16:1,2011-10-08T03:00:00Z,29.4012,-89.0355,25.53,11111222 
WAVCIS,ioos:station:WAVCIS:CSI16:1,2011-10-08T04:00:00Z,29.4012,-89.0355,25.61,11111222 
WAVCIS,ioos:station:WAVCIS:CSI16:1,2011-10-08T05:00:00Z,29.4012,-89.0355,25.66,11111222 
WAVCIS,ioos:station:WAVCIS:CSI16:1,2011-10-08T06:00:00Z,29.4012,-89.0355,26.45,11111222 
WAVCIS,ioos:station:WAVCIS:CSI16:1,2011-10-08T07:00:00Z,29.4012,-89.0355,26.9,11111222 
WAVCIS,ioos:station:WAVCIS:CSI16:1,2011-10-08T08:00:00Z,29.4012,-89.0355,26.19,11111222 
WAVCIS,ioos:station:WAVCIS:CSI16:1,2011-10-08T09:00:00Z,29.4012,-89.0355,25.2,11111222 
WAVCIS,ioos:station:WAVCIS:CSI16:1,2011-10-08T10:00:00Z,29.4012,-89.0355,25.17,11111222 
WAVCIS,ioos:station:WAVCIS:CSI16:1,2011-10-08T11:00:00Z,29.4012,-89.0355,25.09,11111222 
WAVCIS,ioos:station:WAVCIS:CSI16:1,2011-10-08T12:00:00Z,29.4012,-89.0355,25.19,11111222 
WAVCIS,ioos:station:WAVCIS:CSI16:1,2011-10-08T13:00:00Z,29.4012,-89.0355,25.12,11111222 
WAVCIS,ioos:station:WAVCIS:CSI16:1,2011-10-08T14:00:00Z,29.4012,-89.0355,25.11,11111222 
WAVCIS,ioos:station:WAVCIS:CSI16:1,2011-10-08T15:00:00Z,29.4012,-89.0355,25.21,11111222 
WAVCIS,ioos:station:WAVCIS:CSI16:1,2011-10-08T16:00:00Z,29.4012,-89.0355,25.12,11111222 
WAVCIS,ioos:station:WAVCIS:CSI16:1,2011-10-08T17:00:00Z,29.4012,-89.0355,25.09,11111222 
WAVCIS,ioos:station:WAVCIS:CSI16:1,2011-10-08T18:00:00Z,29.4012,-89.0355,25.14,11111222 
WAVCIS,ioos:station:WAVCIS:CSI16:1,2011-10-08T19:00:00Z,29.4012,-89.0355,24.99,11111222 
WAVCIS,ioos:station:WAVCIS:CSI16:1,2011-10-08T20:00:00Z,29.4012,-89.0355,25.26,11111222 
WAVCIS,ioos:station:WAVCIS:CSI16:1,2011-10-08T21:00:00Z,29.4012,-89.0355,25.29,11111222 
WAVCIS,ioos:station:WAVCIS:CSI16:1,2011-10-08T22:00:00Z,29.4012,-89.0355,25.15,11111222 
WAVCIS,ioos:station:WAVCIS:CSI16:1,2011-10-08T23:00:00Z,29.4012,-89.0355,25.27,11111222 
WAVCIS,ioos:station:WAVCIS:CSI16:1,2011-10-09T00:00:00Z,29.4012,-89.0355,25.48,11111222 
WAVCIS,ioos:station:WAVCIS:CSI16:1,2011-10-09T01:00:00Z,29.4012,-89.0355,25.43,11111222 
WAVCIS,ioos:station:WAVCIS:CSI16:1,2011-10-09T02:00:00Z,29.4012,-89.0355,25.66,11111222 
WAVCIS,ioos:station:WAVCIS:CSI16:1,2011-10-09T03:00:00Z,29.4012,-89.0355,25.25,11111222 
WAVCIS,ioos:station:WAVCIS:CSI16:1,2011-10-09T04:00:00Z,29.4012,-89.0355,25.75,11111222 
WAVCIS,ioos:station:WAVCIS:CSI16:1,2011-10-09T05:00:00Z,29.4012,-89.0355,25.58,11111222 
WAVCIS,ioos:station:WAVCIS:CSI16:1,2011-10-09T06:00:00Z,29.4012,-89.0355,25.28,11111222 
WAVCIS,ioos:station:WAVCIS:CSI16:1,2011-10-09T07:00:00Z,29.4012,-89.0355,25.02,11111222 
WAVCIS,ioos:station:WAVCIS:CSI16:1,2011-10-09T08:00:00Z,29.4012,-89.0355,24.88,11111222 
WAVCIS,ioos:station:WAVCIS:CSI16:1,2011-10-09T09:00:00Z,29.4012,-89.0355,24.73,11111222 
WAVCIS,ioos:station:WAVCIS:CSI16:1,2011-10-09T10:00:00Z,29.4012,-89.0355,24.59,11111222 
WAVCIS,ioos:station:WAVCIS:CSI16:1,2011-10-09T11:00:00Z,29.4012,-89.0355,24.72,11111222 
WAVCIS,ioos:station:WAVCIS:CSI16:1,2011-10-09T12:00:00Z,29.4012,-89.0355,24.52,11111222 
WAVCIS,ioos:station:WAVCIS:CSI16:1,2011-10-09T13:00:00Z,29.4012,-89.0355,24.51,11111222 
WAVCIS,ioos:station:WAVCIS:CSI16:1,2011-10-09T14:00:00Z,29.4012,-89.0355,24.64,11111222 
WAVCIS,ioos:station:WAVCIS:CSI16:1,2011-10-09T15:00:00Z,29.4012,-89.0355,24.47,11111222 
WAVCIS,ioos:station:WAVCIS:CSI16:1,2011-10-09T16:00:00Z,29.4012,-89.0355,24.58,11111222 
WAVCIS,ioos:station:WAVCIS:CSI16:1,2011-10-09T17:00:00Z,29.4012,-89.0355,24.85,11111222 
WAVCIS,ioos:station:WAVCIS:CSI16:1,2011-10-09T18:00:00Z,29.4012,-89.0355,24.94,11111222 
WAVCIS,ioos:station:WAVCIS:CSI16:1,2011-10-09T19:00:00Z,29.4012,-89.0355,24.94,11111222 
WAVCIS,ioos:station:WAVCIS:CSI16:1,2011-10-09T20:00:00Z,29.4012,-89.0355,24.63,11111222 
WAVCIS,ioos:station:WAVCIS:CSI16:1,2011-10-09T21:00:00Z,29.4012,-89.0355,24.93,11111222 
WAVCIS,ioos:station:WAVCIS:CSI16:1,2011-10-09T22:00:00Z,29.4012,-89.0355,25.0,11111222 
WAVCIS,ioos:station:WAVCIS:CSI16:1,2011-10-09T23:00:00Z,29.4012,-89.0355,25.2,11111222 
WAVCIS,ioos:station:WAVCIS:CSI16:1,2011-10-10T00:00:00Z,29.4012,-89.0355,25.56,11111222 
WAVCIS,ioos:station:WAVCIS:CSI16:1,2011-10-10T01:00:00Z,29.4012,-89.0355,25.34,11111222 
WAVCIS,ioos:station:WAVCIS:CSI16:1,2011-10-10T02:00:00Z,29.4012,-89.0355,26.38,11111222 
WAVCIS,ioos:station:WAVCIS:CSI16:1,2011-10-10T03:00:00Z,29.4012,-89.0355,28.9,11111222 
WAVCIS,ioos:station:WAVCIS:CSI16:1,2011-10-10T04:00:00Z,29.4012,-89.0355,25.42,11111222 
WAVCIS,ioos:station:WAVCIS:CSI16:1,2011-10-10T05:00:00Z,29.4012,-89.0355,25.21,11111222 
WAVCIS,ioos:station:WAVCIS:CSI16:1,2011-10-10T06:00:00Z,29.4012,-89.0355,26.08,11111222 
WAVCIS,ioos:station:WAVCIS:CSI16:1,2011-10-10T07:00:00Z,29.4012,-89.0355,25.5,11111222 
WAVCIS,ioos:station:WAVCIS:CSI16:1,2011-10-10T08:00:00Z,29.4012,-89.0355,24.96,11111222 
WAVCIS,ioos:station:WAVCIS:CSI16:1,2011-10-10T09:00:00Z,29.4012,-89.0355,25.3,11111222 
WAVCIS,ioos:station:WAVCIS:CSI16:1,2011-10-10T10:00:00Z,29.4012,-89.0355,27.44,11111222 
WAVCIS,ioos:station:WAVCIS:CSI16:1,2011-10-10T11:00:00Z,29.4012,-89.0355,27.1,11111222 
WAVCIS,ioos:station:WAVCIS:CSI16:1,2011-10-10T12:00:00Z,29.4012,-89.0355,26.2,11111222 
WAVCIS,ioos:station:WAVCIS:CSI16:1,2011-10-10T13:00:00Z,29.4012,-89.0355,26.85,11111222 
WAVCIS,ioos:station:WAVCIS:CSI16:1,2011-10-10T14:00:00Z,29.4012,-89.0355,26.11,11111222 
WAVCIS,ioos:station:WAVCIS:CSI16:1,2011-10-10T15:00:00Z,29.4012,-89.0355,26.22,11111222 
WAVCIS,ioos:station:WAVCIS:CSI16:1,2011-10-10T16:00:00Z,29.4012,-89.0355,28.29,11111222 
WAVCIS,ioos:station:WAVCIS:CSI16:1,2011-10-10T17:00:00Z,29.4012,-89.0355,28.19,11111222 
WAVCIS,ioos:station:WAVCIS:CSI16:1,2011-10-10T18:00:00Z,29.4012,-89.0355,29.49,11111222 
WAVCIS,ioos:station:WAVCIS:CSI16:1,2011-10-10T19:00:00Z,29.4012,-89.0355,27.71,11111222 
WAVCIS,ioos:station:WAVCIS:CSI16:1,2011-10-10T20:00:00Z,29.4012,-89.0355,29.34,11111222 
WAVCIS,ioos:station:WAVCIS:CSI16:1,2011-10-10T21:00:00Z,29.4012,-89.0355,28.17,11111222 
WAVCIS,ioos:station:WAVCIS:CSI16:1,2011-10-10T22:00:00Z,29.4012,-89.0355,24.11,11111222 
WAVCIS,ioos:station:WAVCIS:CSI16:1,2011-10-10T23:00:00Z,29.4012,-89.0355,23.27,11111222 
WAVCIS,ioos:station:WAVCIS:CSI16:1,2011-10-11T00:00:00Z,29.4012,-89.0355,24.61,11111222 
WAVCIS,ioos:station:WAVCIS:CSI16:1,2011-10-11T01:00:00Z,29.4012,-89.0355,24.49,11111222 
WAVCIS,ioos:station:WAVCIS:CSI16:1,2011-10-11T02:00:00Z,29.4012,-89.0355,29.17,11111222 
WAVCIS,ioos:station:WAVCIS:CSI16:1,2011-10-11T03:00:00Z,29.4012,-89.0355,32.45,11111222 
WAVCIS,ioos:station:WAVCIS:CSI16:1,2011-10-11T04:00:00Z,29.4012,-89.0355,28.95,11111222 
WAVCIS,ioos:station:WAVCIS:CSI16:1,2011-10-11T05:00:00Z,29.4012,-89.0355,32.2,11111222 
WAVCIS,ioos:station:WAVCIS:CSI16:1,2011-10-11T06:00:00Z,29.4012,-89.0355,30.33,11111222 
WAVCIS,ioos:station:WAVCIS:CSI16:1,2011-10-11T07:00:00Z,29.4012,-89.0355,32.67,11111222 
WAVCIS,ioos:station:WAVCIS:CSI16:1,2011-10-11T08:00:00Z,29.4012,-89.0355,31.01,11111222 
WAVCIS,ioos:station:WAVCIS:CSI16:1,2011-10-11T09:00:00Z,29.4012,-89.0355,30.34,11111222 
WAVCIS,ioos:station:WAVCIS:CSI16:1,2011-10-11T10:00:00Z,29.4012,-89.0355,22.11,11111222 
WAVCIS,ioos:station:WAVCIS:CSI16:1,2011-10-11T11:00:00Z,29.4012,-89.0355,24.79,11111222 
WAVCIS,ioos:station:WAVCIS:CSI16:1,2011-10-11T12:00:00Z,29.4012,-89.0355,21.68,11111222 
WAVCIS,ioos:station:WAVCIS:CSI16:1,2011-10-11T13:00:00Z,29.4012,-89.0355,22.69,11111222 
WAVCIS,ioos:station:WAVCIS:CSI16:1,2011-10-11T14:00:00Z,29.4012,-89.0355,21.67,11111222 
WAVCIS,ioos:station:WAVCIS:CSI16:1,2011-10-11T15:00:00Z,29.4012,-89.0355,20.92,11111222 
WAVCIS,ioos:station:WAVCIS:CSI16:1,2011-10-11T16:00:00Z,29.4012,-89.0355,20.37,11111222 
WAVCIS,ioos:station:WAVCIS:CSI16:1,2011-10-11T17:00:00Z,29.4012,-89.0355,20.52,11111222 
WAVCIS,ioos:station:WAVCIS:CSI16:1,2011-10-11T18:00:00Z,29.4012,-89.0355,20.98,11111222 
WAVCIS,ioos:station:WAVCIS:CSI16:1,2011-10-11T19:00:00Z,29.4012,-89.0355,21.22,11111222 
WAVCIS,ioos:station:WAVCIS:CSI16:1,2011-10-11T20:00:00Z,29.4012,-89.0355,23.3,11111222 
WAVCIS,ioos:station:WAVCIS:CSI16:1,2011-10-11T21:00:00Z,29.4012,-89.0355,23.03,11111222 
WAVCIS,ioos:station:WAVCIS:CSI16:1,2011-10-11T22:00:00Z,29.4012,-89.0355,21.89,11111222 
WAVCIS,ioos:station:WAVCIS:CSI16:1,2011-10-11T23:00:00Z,29.4012,-89.0355,22.68,11111222 
WAVCIS,ioos:station:WAVCIS:CSI16:1,2011-10-12T00:00:00Z,29.4012,-89.0355,27.1,11111222 
WAVCIS,ioos:station:WAVCIS:CSI16:1,2011-10-12T01:00:00Z,29.4012,-89.0355,25.45,11111222 
WAVCIS,ioos:station:WAVCIS:CSI16:1,2011-10-12T02:00:00Z,29.4012,-89.0355,26.88,11111222 
WAVCIS,ioos:station:WAVCIS:CSI16:1,2011-10-12T03:00:00Z,29.4012,-89.0355,23.69,11111222 
WAVCIS,ioos:station:WAVCIS:CSI16:1,2011-10-12T04:00:00Z,29.4012,-89.0355,25.53,11111222 